CW9454 Weather Reports


Display with metric or nautical units.
time (UTC)temp
F
wind
direction
speed
MPH
gust
MPH
rain 1hr
in
rain 24hr
in
rain mn
in
humidity
%
barometer
mb
20260901134014 82 273 0.0 5.0 0.00 0.00 0.00 82 1016.3
20260901133027 81 251 3.0 8.0 0.00 0.00 0.00 85 1016.5
20260901132020 80 232 3.0 8.0 0.00 0.00 0.00 88 1016.6
20260901131033 79 239 0.0 7.0 0.00 0.00 0.00 91 1016.6
20260901130041 78 233 2.0 8.0 0.00 0.00 0.00 93 1016.8
20260901125029 78 249 1.0 5.0 0.00 0.00 0.00 94 1016.8
20260901124042 77 248 1.0 5.0 0.00 0.00 0.00 94 1017.0
20260901123015 77 253 0.0 5.0 0.00 0.00 0.00 95 1017.0
20260901122059 76 255 1.0 6.0 0.00 0.00 0.00 95 1016.9
20260901121021 76 269 0.0 4.0 0.00 0.00 0.00 95 1017.2
20260901120037 75 276 0.0 2.0 0.00 0.00 0.00 95 1017.0
20260901115020 75 276 0.0 4.0 0.00 0.00 0.00 94 1016.6
20260901114014 75 344 0.0 1.0 0.00 0.00 0.00 94 1016.7
20260901113028 74 344 0.0 0.0 0.00 0.00 0.00 94 1016.7
20260901112022 74 344 0.0 0.0 0.00 0.00 0.00 94 1016.8
20260901111016 74 344 0.0 2.0 0.00 0.00 0.00 93 1017.0
20260901110023 74 344 0.0 0.0 0.00 0.00 0.00 93 1016.8
20260901105018 74 344 0.0 0.0 0.00 0.00 0.00 93 1016.8
20260901104032 74 344 0.0 0.0 0.00 0.00 0.00 93 1016.7
20260901103016 74 344 0.0 0.0 0.00 0.00 0.00 93 1016.7
20260901102039 74 344 0.0 0.0 0.00 0.00 0.00 93 1016.6
20260901101052 74 344 0.0 0.0 0.00 0.00 0.00 93 1016.6
20260901100037 74 344 0.0 0.0 0.00 0.00 0.00 93 1016.4
20260901095030 75 344 0.0 0.0 0.00 0.00 0.00 93 1016.4
20260901094022 75 344 0.0 0.0 0.00 0.00 0.00 93 1016.3
20260901093038 74 344 0.0 0.0 0.00 0.00 0.00 93 1016.7
20260901092032 75 344 0.0 0.0 0.00 0.00 0.00 93 1016.8
20260901091019 75 344 0.0 0.0 0.00 0.00 0.00 93 1016.9
20260901090033 75 344 0.0 0.0 0.00 0.00 0.00 92 1016.8
20260901085018 75 344 0.0 0.0 0.00 0.00 0.00 92 1016.8
20260901084013 75 344 0.0 0.0 0.00 0.00 0.00 92 1016.7
20260901083027 75 344 0.0 0.0 0.00 0.00 0.00 92 1016.7
20260901082021 75 344 0.0 0.0 0.00 0.00 0.00 92 1016.8
20260901081016 75 344 0.0 0.0 0.00 0.00 0.00 92 1016.6
20260901080021 75 344 0.0 0.0 0.00 0.00 0.00 92 1016.6
20260901075014 75 344 0.0 0.0 0.00 0.00 0.00 92 1016.6
20260901074029 75 344 0.0 0.0 0.00 0.00 0.00 92 1016.7
20260901073013 75 344 0.0 0.0 0.00 0.00 0.00 91 1016.7
20260901072026 75 344 0.0 0.0 0.00 0.00 0.00 91 1016.9
20260901071019 76 344 0.0 0.0 0.00 0.00 0.00 91 1017.1
20260901070026 76 344 0.0 0.0 0.00 0.00 0.00 91 1017.1
20260901065019 76 344 0.0 0.0 0.00 0.00 0.00 91 1017.2
20260901064014 76 344 0.0 0.0 0.00 0.00 0.00 91 1017.3
20260901063028 76 344 0.0 1.0 0.00 0.00 0.00 91 1017.3
20260901062022 76 344 0.0 0.0 0.00 0.00 0.00 91 1017.4
20260901061037 76 344 0.0 0.0 0.00 0.00 0.00 91 1017.4
20260901060024 76 344 0.0 0.0 0.00 0.00 0.00 91 1017.3
20260901055019 77 344 0.0 0.0 0.00 0.00 0.00 91 1017.3
20260901054033 77 344 0.0 0.0 0.00 0.00 0.00 91 1017.6
20260901053019 77 344 0.0 0.0 0.00 0.00 0.00 91 1017.6
20260901052013 77 344 0.0 0.0 0.00 0.00 0.00 91 1017.6
20260901051026 77 344 0.0 0.0 0.00 0.00 0.00 91 1017.7
20260901050031 77 344 0.0 0.0 0.00 0.00 0.00 91 1018.1
20260901045025 77 344 0.0 0.0 0.00 0.00 0.00 90 1018.3
20260901044019 77 344 0.0 0.0 0.00 0.00 0.00 90 1018.0
20260901043052 77 344 0.0 0.0 0.00 0.00 0.00 90 1018.2
20260901042041 77 344 0.0 0.0 0.00 0.00 0.00 90 1018.2
20260901041014 77 344 0.0 0.0 0.00 0.00 0.00 90 1018.1
20260901040019 77 343 0.0 0.0 0.00 0.00 0.00 89 1018.2
20260901035014 77 344 0.0 0.0 0.00 0.00 0.00 89 1018.3
20260901034029 77 343 0.0 0.0 0.00 0.00 0.00 89 1018.2
20260901033043 77 344 0.0 0.0 0.00 0.00 0.00 89 1018.1
20260901032015 77 344 0.0 0.0 0.00 0.00 0.00 88 1018.2
20260901031032 77 344 0.0 0.0 0.00 0.00 0.00 88 1018.1
20260901030019 77 344 0.0 0.0 0.00 0.00 0.00 88 1018.3
20260901025015 77 344 0.0 0.0 0.00 0.00 0.00 88 1018.6
20260901024030 77 344 0.0 0.0 0.00 0.00 0.00 87 1018.5
20260901023024 77 344 0.0 0.0 0.00 0.00 0.00 87 1018.2
20260901022038 78 344 0.0 0.0 0.00 0.00 0.00 87 1018.1
20260901021013 78 344 0.0 0.0 0.00 0.00 0.00 86 1018.2
20260901020020 78 344 0.0 0.0 0.00 0.00 0.00 86 1018.1
20260901015013 78 344 0.0 0.0 0.00 0.00 0.00 86 1018.0
20260901014027 78 344 0.0 0.0 0.00 0.00 0.00 86 1018.0
20260901013013 78 344 0.0 0.0 0.00 0.00 0.00 86 1018.2
20260901012055 79 344 0.0 0.0 0.00 0.00 0.00 86 1017.9
20260901011029 79 344 0.0 0.0 0.00 0.00 0.00 85 1018.0
20260901010035 79 344 0.0 0.0 0.00 0.00 0.00 85 1018.0
20260901005030 79 344 0.0 0.0 0.00 0.02 0.00 84 1018.0
20260901004015 79 344 0.0 0.0 0.00 0.02 0.00 84 1017.9
20260901003028 79 343 0.0 0.0 0.00 0.02 0.00 84 1018.0
20260901002039 80 344 0.0 0.0 0.00 0.02 0.00 84 1017.9
20260901001014 80 344 0.0 0.0 0.00 0.02 0.00 83 1017.7
20260901000050 80 344 0.0 0.0 0.00 0.02 0.00 83 1017.8
20260831235043 80 344 0.0 0.0 0.00 0.02 0.00 83 1017.6
20260831234036 80 344 0.0 0.0 0.00 0.02 0.00 82 1017.7
20260831233028 81 344 0.0 0.0 0.00 0.02 0.00 82 1018.0
20260831232023 81 344 0.0 0.0 0.00 0.02 0.00 82 1018.1
20260831231018 81 344 0.0 0.0 0.00 0.02 0.00 81 1018.3
20260831230026 81 344 0.0 0.0 0.00 0.02 0.00 81 1018.3
20260831225040 82 344 0.0 0.0 0.00 0.02 0.00 80 1018.3
20260831224013 82 344 0.0 0.0 0.00 0.02 0.00 80 1018.4
20260831223027 82 344 0.0 0.0 0.00 0.02 0.00 79 1018.5
20260831222041 83 344 0.0 0.0 0.00 0.02 0.00 78 1018.5
20260831221035 83 344 0.0 0.0 0.00 0.02 0.00 77 1018.7
20260831220023 84 344 0.0 0.0 0.00 0.02 0.00 77 1018.8
20260831215037 84 344 0.0 0.0 0.00 0.02 0.00 76 1018.6
20260831214029 84 343 0.0 0.0 0.00 0.02 0.00 75 1018.6
20260831213015 85 344 0.0 0.0 0.00 0.02 0.00 75 1018.5
20260831212040 85 343 0.0 0.0 0.00 0.02 0.00 74 1018.4
20260831211024 84 344 0.0 0.0 0.00 0.02 0.00 75 1018.4
20260831210027 84 344 0.0 0.0 0.00 0.02 0.00 76 1018.3
20260831205051 84 344 0.0 0.0 0.00 0.02 0.00 75 1018.5
20260831204014 84 344 0.0 0.0 0.00 0.02 0.00 76 1018.6
20260831203028 84 343 0.0 0.0 0.00 0.02 0.00 75 1018.7
20260831202022 84 343 0.0 0.0 0.00 0.02 0.00 76 1018.6
20260831201016 84 344 0.0 0.0 0.00 0.02 0.00 75 1018.6
20260831200023 84 343 0.0 0.0 0.00 0.02 0.00 76 1018.6
20260831195017 84 344 0.0 0.0 0.00 0.02 0.00 75 1018.6
20260831194032 84 343 0.0 0.0 0.00 0.02 0.00 75 1018.7
20260831193026 84 343 0.0 0.0 0.00 0.02 0.00 75 1018.8
20260831192041 84 343 0.0 0.0 0.00 0.02 0.00 75 1019.1
20260831191025 84 343 0.0 0.0 0.00 0.02 0.00 75 1019.2
20260831190038 84 343 0.0 0.0 0.00 0.02 0.00 76 1019.4
20260831185051 83 343 0.0 0.0 0.00 0.02 0.00 75 1019.5
20260831184025 83 343 0.0 0.0 0.00 0.02 0.00 76 1019.5
20260831183035 84 343 0.0 0.0 0.00 0.02 0.00 75 1019.6
20260831182048 84 343 0.0 0.0 0.00 0.02 0.00 75 1019.4
20260831181019 84 343 0.0 1.0 0.00 0.02 0.00 75 1019.3
20260831180026 84 342 0.0 0.0 0.00 0.02 0.00 75 1019.5
20260831175020 84 328 0.0 1.0 0.00 0.02 0.00 74 1019.6
20260831174033 85 27 0.0 1.0 0.00 0.02 0.00 74 1019.7
20260831173026 84 24 0.0 1.0 0.00 0.02 0.00 75 1019.8
20260831172036 85 24 0.0 1.0 0.00 0.02 0.00 73 1019.9
20260831171031 85 21 0.0 0.0 0.00 0.02 0.00 73 1020.0
20260831170036 85 21 0.0 1.0 0.00 0.02 0.00 75 1020.1
20260831165052 84 145 0.0 0.0 0.00 0.02 0.00 73 1020.1
20260831164026 84 146 0.0 0.0 0.00 0.02 0.00 72 1020.1
20260831163040 84 146 0.0 0.0 0.00 0.02 0.00 73 1020.1
20260831162036 84 162 0.0 5.0 0.00 0.02 0.00 74 1020.2
20260831161019 85 111 0.0 3.0 0.00 0.02 0.00 74 1020.2
20260831160035 84 111 0.0 2.0 0.00 0.02 0.00 75 1020.1
20260831155019 84 86 0.0 0.0 0.00 0.02 0.00 77 1020.3
20260831154032 83 86 0.0 2.0 0.00 0.02 0.00 77 1020.3
20260831153046 82 121 0.0 4.0 0.00 0.02 0.00 78 1020.1
20260831152018 81 71 0.0 0.0 0.00 0.02 0.00 81 1020.2
20260831151031 81 71 0.0 1.0 0.00 0.02 0.00 79 1020.3
20260831150018 81 69 0.0 0.0 0.00 0.02 0.00 81 1020.3
20260831145032 80 69 0.0 1.0 0.00 0.02 0.00 82 1020.2
20260831144025 80 69 0.0 2.0 0.00 0.02 0.00 84 1020.3
20260831143019 79 70 0.0 2.0 0.00 0.02 0.00 87 1020.3
20260831142032 78 36 0.0 2.0 0.00 0.02 0.00 87 1020.4
20260831141025 77 344 0.0 0.0 0.00 0.02 0.00 89 1020.3
20260831140054 77 303 0.0 0.0 0.00 0.02 0.00 90 1020.2
20260831135025 77 302 0.0 0.0 0.00 0.02 0.00 90 1020.2